Regional Weather Roundup
Issued by NWS Green Bay, WI

Home | Current Version | Previous Version | Text Only | Print | Product List | Glossary On
Versions: 1 2 3 4 5 6 7 8 9 10 11 12 13 14 15 16 17 18 19 20 21 22 23 24 25 26 27 28 29 30 31 32 33 34 35 36 37 38 39 40 41 42 43 44 45 46 47 48 49 50
080
ASUS43 KGRB 290811
RWRGRB

NORTH-CENTRAL AND NORTHEAST WISCONSIN REGIONAL WEATHER ROUNDUP
NATIONAL WEATHER SERVICE GREEN BAY WI
300 AM CDT FRI JUL 29 2016

WIZ005-009-010>012-018-019-290900-
NORTH CENTRAL WISCONSIN

CITY           SKY/WX    TMP DP  RH WIND       PRES   REMARKS
IRONWOOD       CLEAR     45  45 100 CALM      30.10S
MANITOWISH WTR CLEAR     48  48 100 CALM      30.10S
ARBOR VITAE    CLEAR     52  50  94 CALM      30.09F
EAGLE RIVER    PTCLDY    46  46 100 CALM      30.09S FOG
LAND O LAKES   CLEAR     45  45  99 CALM      30.11S
RHINELANDER    CLEAR     52  50  93 CALM      30.09F
PHILLIPS       CLEAR     52  52  99 CALM      30.08S
ANTIGO         CLOUDY    56  52  85 NE7       30.06F
TOMAHAWK       CLEAR     50  49  96 CALM      30.08S
MERRILL        CLOUDY    58  53  82 E3        30.07S
$$

WIZ013-073-290900-
NORTHEAST WISCONSIN

CITY           SKY/WX    TMP DP  RH WIND       PRES   REMARKS
IRON MOUNTAIN  CLOUDY    53  49  86 CALM      30.06S
MARINETTE      CLOUDY   N/A N/A N/A N6        30.04F
OCONTO         CLOUDY    60  60 100 N6        30.03S
$$

WIZ017-030-035>037-045-290900-
CENTRAL WISCONSIN

CITY           SKY/WX    TMP DP  RH WIND       PRES   REMARKS
MEDFORD        CLOUDY    58  55  87 NE5       30.07R
WAUSAU         CLOUDY    62  54  74 NE3       30.04S
MOSINEE        CLOUDY    61  55  82 NE7       30.06S
MARSHFIELD     CLOUDY    63  59  87 NE7       30.04F
WISC RAPIDS    CLOUDY    63  54  72 NE8       30.04F
STEVENS POINT  CLOUDY    58  55  89 NE5       30.04F
WAUPACA        CLOUDY    64  54  69 NE7       30.03S
SHAWANO        CLOUDY    62  54  74 NE12      30.04F
CLINTONVILLE   CLOUDY    61  52  72 NE3       30.03F
WAUTOMA        HVY RAIN  60  57  89 NE10      30.02  FOG
$$

WIZ038-039-048-051-290900-
FOX VALLEY

CITY           SKY/WX    TMP DP  RH WIND       PRES   REMARKS
NWS GREEN BAY  CLOUDY    60  58  92 NE8       30.03S
APPLETON       CLOUDY    61  52  72 NE9       30.01S
OSHKOSH        LGT RAIN  64  59  83 NE12      29.99F
FOND DU LAC    RAIN      64  61  90 NE8       30.00S
$$

WIZ022-050-052-290900-
EAST CENTRAL WISCONSIN

CITY           SKY/WX    TMP DP  RH WIND       PRES   REMARKS
EPHRAIM        CLOUDY    63  58  82 CALM      30.03S
WASHINGTON ISL NOT AVBL
STURGEON BAY   CLOUDY    64  57  78 NE6       30.03S
MANITOWOC      LGT RAIN  63  60  90 MISG      30.00F
SHEBOYGAN      LGT RAIN  63  61  93 NE13      29.99S
$$

LMZ563-521-522-541>543-290900-
LAKESHORE

STATION/POSITION TIME  TEMP    WIND        PRES    VSBY  WAVE
                       AIR SEA DIR/SP/G                  HT/PER
                 (UTC) (F)     (DEG/KT/KT) (MB)    (MI)  (FT/S)
SHEBOYGAN LKSHOR 0800   61     360/ 17/ 17 1015.7F
KEWAUNEE LKSHORE 0700   64      30/  5/ 13 1015.8S
ALGOMA MARINA    0743          350/  6/  8   N/A
NORTHPORT PIER   0700   66      10/  8/ 12 1016.9R
N MID LAKE BUOY  0750   66 69   30/ 16/ 17 1015.8R         3/ 5
SISTER BAY LKSHO 0736   66      30/  1/  4   N/A
CHAMBERS ISLAND  0700   66     350/ 13/ 17 1016.9R
MENOMINEE LKSHOR 0700   62     360/ 11/ 13 1016.4R
$$




USA.gov is the U.S. government's official web portal to all federal, state and local government web resources and services.